[Date Prev][Date Next][Thread Prev][Thread Next] - [Date Index][Thread Index][Author Index]

2 Line ISS Keps 5-3



ISS
1 25544U 98067A   03123.24485674  .00004154  00000-0  59043-4 0  9594
2 25544  51.6319 246.0559 0006389  79.3719  10.5035 15.58869266253998


----
Via the sarex mailing list at AMSAT.ORG courtesy of AMSAT-NA.
To unsubscribe, send "unsubscribe sarex" to Majordomo@amsat.org



AMSAT Top AMSAT Home